Flag for Germany Weather past 2 weeks in Gütersloh, North Rhine-Westphalia, Germany

Now
26 °F

Overcast.


Feels Like: 16 °F
Forecast: 24 / 34 °F
Wind: 10 mph from Northeast

Location: Bad Lippspringe

Current Time: Dec 28, 2014 at 2:06:48 AM

Latest Report: Dec 28, 2014 at 1:00 AM


Visibility: 44 mi

Pressure: 29.84 "Hg

Humidity: 71%

Dew point: 17 °F

Location of GüterslohLocation

Historic Weather in Gütersloh — Graph

°F

Gütersloh temperature yesterday

Maximum temperature yesterday: 33 °F (at 2:00 PM)
Minimum temperature yesterday: 27 °F (at 11:00 PM)
Average temperature yesterday: 32 °F

Past Weeks' High & Low Weather Summary

 TemperatureHumidityPressure
High53 °F (Dec 18, 8:00 PM)100% (Dec 26, 10:00 AM)30.40 "Hg (Dec 26, 10:00 AM)
Low26 °F (Dec 28, 1:00 AM)57% (Dec 27, 6:00 PM)29.59 "Hg (Dec 27, 2:00 PM)
Average42 °F88%29.99 "Hg
* Reported Dec 16 11:00 AM — Dec 28 1:00 AM, Gütersloh, Weather by CustomWeather, © 2014

Note: Actual official high and low records may vary slightly from our data, if they occured in-between our weather recording intervals... More about our weather records

Advertising

Gütersloh weather history for previous 24 hours

 ConditionsComfort  
Time TempWeatherWind HumidityBarometerVisibility
1:00 AM
Dec 28
26 °FOvercast.10 mph71%29.84 "Hg43 mi
12:00 AM27 °FOvercast.13 mph70%29.80 "HgN/A
11:00 PM
Dec 27
27 °FOvercast.10 mph72%29.78 "HgN/A
10:00 PM27 °FOvercast.12 mph73%29.74 "Hg43 mi
9:00 PM29 °FOvercast.10 mph72%29.71 "Hg43 mi
8:00 PM30 °FOvercast.9 mph68%29.68 "Hg43 mi
7:00 PM30 °FOvercast.8 mph69%29.65 "Hg43 mi
6:00 PM32 °FOvercast.8 mph57%29.63 "Hg43 mi
5:00 PM32 °FOvercast.7 mph62%29.62 "Hg43 mi
4:00 PM33 °FOvercast.9 mph64%29.60 "Hg40 mi
3:00 PM33 °FOvercast.9 mph71%29.59 "Hg34 mi
2:00 PM33 °FOvercast.9 mph75%29.59 "Hg25 mi
1:00 PM33 °FScattered clouds.9 mph76%29.59 "Hg22 mi
12:00 PM33 °FOvercast.9 mph80%29.61 "Hg22 mi
11:00 AM33 °FOvercast.9 mph78%29.63 "Hg19 mi
10:00 AM33 °FOvercast.10 mph81%29.65 "Hg19 mi
9:00 AM32 °FSnow flurries. Overcast.9 mph85%29.69 "Hg7 mi
8:00 AM32 °FOvercast.9 mph83%29.72 "Hg15 mi
7:00 AM32 °FOvercast.7 mph85%29.76 "Hg13 mi
6:00 AM32 °FOvercast.6 mph85%29.82 "Hg13 mi
5:00 AM33 °FOvercast.5 mph87%29.87 "Hg11 mi
4:00 AM32 °FOvercast.5 mph87%29.96 "Hg12 mi
3:00 AM33 °FOvercast.5 mph86%30.01 "Hg15 mi
2:00 AM32 °FPassing clouds.3 mph84%30.04 "Hg16 mi
Weather by CustomWeather, © 2014

See weather overviewHow to use our weather pages